Weather History for KFBL - July, 2013

Change the Weather History Date:

Wednesday, July 3, 2013

  Actual Average Record
Temperature  
Mean Temperature 68 °F -  
Max Temperature 82 °F 82 °F 98 °F (1949)
Min Temperature 55 °F 60 °F 44 °F (1967)
Cooling Degree Days 4    
Growing Degree Days 18 (Base 50)    
Moisture  
Dew Point 57 °F    
Average Humidity 68    
Maximum Humidity 100    
Minimum Humidity 35    
Precipitation  
Precipitation 0.00 in - - ()
Sea Level Pressure  
Sea Level Pressure 30.04 in    
Wind  
Wind Speed 1 mph (South)    
Max Wind Speed 7 mph    
Max Gust Speed 17 mph    
Visibility 10 miles    
Events      
Averages and records for this station are not official NWS values.
T = Trace of Precipitation, MM = Missing Value Source: NWS Daily Summary

Daily Weather History Graph

Daily Weather History Graph

Search for Another Location

Airport or City:

Trip Planner

Search our weather history database for the weather conditions in past years. The results will help you decide how hot, cold, wet, or windy it might be!

Date:

Astronomy

Jul. 03, 2013 Rise Set
Actual Time 5:34 AM CDT 9:00 PM CDT
Civil Twilight 4:57 AM CDT 9:36 PM CDT
Nautical Twilight 4:10 AM CDT 10:24 PM CDT
Astronomical Twilight 3:09 AM CDT 11:24 PM CDT
Moon 2:17 AM CDT (7/3) 5:07 PM CDT (7/3)
Length of Visible Light 16h 38m
Length of Day
15h 26m
Waning Crescent, 18% of the Moon is Illuminated
Jul 3
Waning Crescent
Jul 8
New
Jul 15
First Quarter
Jul 22
Full
Jul 29
Last Quarter

Hourly Weather History & Observations

Time (CDT) Temp. Heat Index Dew Point Humidity Pressure Visibility Wind Dir Wind Speed Gust Speed Precip Events Conditions
12:14 AM 59.0 °F - 59.0 °F 100% 30.09 in 10.0 mi Calm Calm - N/A   Clear
12:34 AM 59.0 °F - 59.0 °F 100% 30.08 in 10.0 mi Calm Calm - N/A   Clear
12:54 AM 59.0 °F - 59.0 °F 100% 30.08 in 10.0 mi Calm Calm - N/A   Clear
1:14 AM 59.0 °F - 57.2 °F 94% 30.08 in 10.0 mi Calm Calm - N/A   Clear
1:34 AM 59.0 °F - 57.2 °F 94% 30.08 in 10.0 mi Calm Calm - N/A   Clear
1:54 AM 57.2 °F - 57.2 °F 100% 30.07 in 10.0 mi Calm Calm - N/A   Clear
2:14 AM 57.2 °F - 57.2 °F 100% 30.07 in 10.0 mi Calm Calm - N/A   Clear
2:34 AM 57.2 °F - 57.2 °F 100% 30.07 in 10.0 mi Calm Calm - N/A   Clear
2:54 AM 55.4 °F - 55.4 °F 100% 30.07 in 10.0 mi Calm Calm - N/A   Clear
3:14 AM 55.4 °F - 55.4 °F 100% 30.07 in 10.0 mi Calm Calm - N/A   Clear
3:34 AM 55.4 °F - 55.4 °F 100% 30.07 in 10.0 mi Calm Calm - N/A   Clear
3:54 AM 57.2 °F - 57.2 °F 100% 30.06 in 10.0 mi Calm Calm - N/A   Clear
4:14 AM 55.4 °F - 55.4 °F 100% 30.06 in 10.0 mi Calm Calm - N/A   Clear
4:34 AM 55.4 °F - 55.4 °F 100% 30.06 in 10.0 mi Calm Calm - N/A   Clear
4:54 AM 55.4 °F - 55.4 °F 100% 30.06 in 10.0 mi Calm Calm - N/A   Clear
5:14 AM 55.4 °F - 55.4 °F 100% 30.06 in 10.0 mi Calm Calm - N/A   Clear
5:34 AM 55.4 °F - 55.4 °F 100% 30.07 in 7.0 mi Calm Calm - N/A   Clear
5:54 AM 55.4 °F - 55.4 °F 100% 30.07 in 7.0 mi Calm Calm - N/A   Clear
6:14 AM 55.4 °F - 55.4 °F 100% 30.07 in 7.0 mi Calm Calm - N/A   Clear
6:34 AM 57.2 °F - 57.2 °F 100% 30.07 in 10.0 mi Calm Calm - N/A   Clear
6:54 AM 60.8 °F - 60.8 °F 100% 30.07 in 10.0 mi Calm Calm - N/A   Clear
7:14 AM 62.6 °F - 60.8 °F 94% 30.07 in 10.0 mi Calm Calm - N/A   Clear
7:34 AM 64.4 °F - 60.8 °F 88% 30.08 in 10.0 mi Calm Calm - N/A   Clear
7:54 AM 66.2 °F - 62.6 °F 88% 30.08 in 10.0 mi Calm Calm - N/A   Clear
8:14 AM 66.2 °F - 60.8 °F 83% 30.09 in 10.0 mi Calm Calm - N/A   Clear
8:34 AM 68.0 °F - 60.8 °F 78% 30.09 in 10.0 mi SSW 3.5 mph - N/A   Clear
8:54 AM 69.8 °F - 60.8 °F 73% 30.09 in 10.0 mi SW 5.8 mph - N/A   Clear
9:14 AM 71.6 °F - 62.6 °F 73% 30.09 in 10.0 mi WSW 3.5 mph - N/A   Clear
9:34 AM 71.6 °F - 62.6 °F 73% 30.09 in 10.0 mi Calm Calm - N/A   Clear
9:54 AM 73.4 °F - 62.6 °F 69% 30.08 in 10.0 mi Calm Calm - N/A   Clear
10:14 AM 73.4 °F - 62.6 °F 69% 30.08 in 10.0 mi Calm Calm - N/A   Clear
10:34 AM 75.2 °F - 59.0 °F 57% 30.07 in 10.0 mi Calm Calm - N/A   Clear
10:54 AM 75.2 °F - 57.2 °F 53% 30.07 in 10.0 mi Calm Calm - N/A   Clear
11:14 AM 77.0 °F - 53.6 °F 44% 30.07 in 10.0 mi Calm Calm - N/A   Scattered Clouds
11:34 AM 77.0 °F - 51.8 °F 41% 30.07 in 10.0 mi West 3.5 mph - N/A   Scattered Clouds
11:54 AM 78.8 °F - 53.6 °F 42% 30.07 in 10.0 mi ENE 3.5 mph - N/A   Clear
12:14 PM 78.8 °F - 53.6 °F 42% 30.06 in 10.0 mi ESE 6.9 mph - N/A   Scattered Clouds
12:34 PM 78.8 °F - 53.6 °F 42% 30.05 in 10.0 mi NNE 5.8 mph - N/A   Clear
12:54 PM 78.8 °F - 51.8 °F 39% 30.05 in 10.0 mi Calm Calm - N/A   Clear
1:14 PM 78.8 °F - 51.8 °F 39% 30.05 in 10.0 mi Calm Calm - N/A   Clear
1:34 PM 78.8 °F - 51.8 °F 39% 30.04 in 10.0 mi North 4.6 mph - N/A   Clear
1:54 PM 80.6 °F - 51.8 °F 37% 30.04 in 10.0 mi Calm Calm - N/A   Scattered Clouds
2:14 PM 78.8 °F - 51.8 °F 39% 30.03 in 10.0 mi Calm Calm - N/A   Scattered Clouds
2:33 PM 80.6 °F 80.3 °F 53.6 °F 39% 30.03 in 10.0 mi WNW 3.5 mph 17.3 mph N/A   Scattered Clouds
2:54 PM 80.6 °F 80.3 °F 53.6 °F 39% 30.03 in 10.0 mi South 3.5 mph - N/A   Scattered Clouds
3:14 PM 82.4 °F 81.4 °F 53.6 °F 37% 30.03 in 10.0 mi South 6.9 mph - N/A   Scattered Clouds
3:34 PM 80.6 °F - 51.8 °F 37% 30.02 in 10.0 mi WSW 3.5 mph - N/A   Scattered Clouds
3:54 PM 82.4 °F - 51.8 °F 35% 30.01 in 10.0 mi Calm Calm - N/A   Clear
4:14 PM 80.6 °F 80.3 °F 53.6 °F 39% 30.01 in 10.0 mi WSW 4.6 mph - N/A   Clear
4:34 PM 82.4 °F 81.4 °F 53.6 °F 37% 30.01 in 10.0 mi SW 3.5 mph - N/A   Clear
4:54 PM 82.4 °F 81.4 °F 53.6 °F 37% 30.00 in 10.0 mi SSE 3.5 mph - N/A   Scattered Clouds
5:14 PM 80.6 °F 80.3 °F 53.6 °F 39% 30.00 in 10.0 mi Calm Calm - N/A   Scattered Clouds
5:34 PM 80.6 °F 80.3 °F 53.6 °F 39% 29.99 in 10.0 mi Calm Calm - N/A   Clear
5:54 PM 80.6 °F 80.3 °F 53.6 °F 39% 29.99 in 10.0 mi Calm Calm - N/A   Clear
6:14 PM 80.6 °F 80.3 °F 53.6 °F 39% 29.99 in 10.0 mi Calm Calm - N/A   Clear
6:34 PM 80.6 °F 80.3 °F 53.6 °F 39% 29.98 in 10.0 mi WNW 4.6 mph - N/A   Clear
6:53 PM 80.6 °F 80.3 °F 53.6 °F 39% 29.98 in 10.0 mi Calm Calm - N/A   Clear
7:14 PM 78.8 °F - 53.6 °F 42% 29.98 in 10.0 mi Calm Calm - N/A   Clear
7:34 PM 78.8 °F - 55.4 °F 44% 29.98 in 10.0 mi NW 3.5 mph - N/A   Clear
7:54 PM 78.8 °F - 55.4 °F 44% 29.98 in 10.0 mi Calm Calm - N/A   Clear
8:14 PM 75.2 °F - 60.8 °F 61% 29.98 in 10.0 mi Calm Calm - N/A   Clear
8:34 PM 73.4 °F - 62.6 °F 69% 29.97 in 10.0 mi Calm Calm - N/A   Clear
8:54 PM 71.6 °F - 60.8 °F 69% 29.98 in 10.0 mi Calm Calm - N/A   Clear
9:14 PM 69.8 °F - 60.8 °F 73% 29.98 in 10.0 mi Calm Calm - N/A   Clear
9:34 PM 68.0 °F - 59.0 °F 73% 29.98 in 10.0 mi Calm Calm - N/A   Clear
9:54 PM 66.2 °F - 57.2 °F 73% 29.99 in 10.0 mi East 3.5 mph - N/A   Clear
10:14 PM 69.8 °F - 57.2 °F 64% 29.99 in 10.0 mi East 3.5 mph - N/A   Clear
10:34 PM 69.8 °F - 57.2 °F 64% 29.99 in 10.0 mi East 4.6 mph - N/A   Clear
10:54 PM 69.8 °F - 59.0 °F 68% 29.99 in 10.0 mi ESE 5.8 mph - N/A   Clear
11:14 PM 66.2 °F - 59.0 °F 78% 29.99 in 10.0 mi SE 5.8 mph - N/A   Clear
11:34 PM 66.2 °F - 59.0 °F 78% 29.99 in 10.0 mi SE 6.9 mph - N/A   Clear
11:54 PM 66.2 °F - 57.2 °F 73% 29.99 in 10.0 mi SE 6.9 mph - N/A   Clear